User: anonymous   Login
Location: Prairie State College
(41.5244°N, 87.6382°W)
Time: 18:09:10
(UTC-05:00)
Language:

Cosmos 1140 Rocket - Orbit

View from above orbital plane
View from above orbital plane
View from above satellite
View from above satellite

Ground track
Ground track

The orbit data is extracted from the following two-line orbital elements,

1 11574U 79089B   14296.27388645  .00000421  00000-0  14100-3 0  8722
2 11574 074.0712 205.3258 0016233 352.2949 155.1943 14.40292664837784
Epoch (UTC): 23 October 2014 06:34:23
Eccentricity: 0.0016233
inclination: 74.0712°
perigee height: 746 km
apogee height: 769 km
right ascension of ascending node: 205.3258°
argument of perigee: 352.2949°
revolutions per day: 14.40292664
mean anomaly at epoch: 155.1943°
orbit number at epoch: 83778

The dashed part of the orbit path shows where the satellite is in the earth's shadow,  

DLR